OneWeb SL0291

operational
NORAD ID: 49081 Int'l Des: 2021-075 Owner: ONEWEBN Country: UK Constellation: oneweb
LEOCIRCULARPOLARONEWEB_TYPE

关于 OneWeb SL0291

正在加载描述...

实时位置

正在加载3D地球...

即将过境

高度历史

Altitude vs Time

uPlot chart will show altitude changes over time

两行轨道根数

1 49081U 21075G 25258.19841151 .00000041 00000-0 72519-4 0 9992
2 49081 87.9050 60.5448 0002001 101.0990 259.0367 13.17651217197398
Epoch: Sep 15, 2025 • Age: 10 hours

当前状态

高度 1222.3 km
速度 7.24 km/s
星下点 -74.49°S, 25.73°E
发射日期 Aug 21, 2021
运行时间 4 years
类型 internet

技术详情

分类 Payload
质量 148.00 kg
干质量 140.00 kg
总质量 148.00 kg
长度 1.30 m
直径 1.00 m
跨度 5.00 m
形状 Trapezoid+2 pan
制造商 ONEWUS
平台类型 ARROW
阶段状态 In Orbit
所有者/国家 ONEWEBN/UK

大型星座

Loading constellations...